OK1KZE-6 Weather Reports


Display with metric or nautical units.
time (UTC)temp
F
wind
direction
speed
MPH
gust
MPH
rain 1hr
in
rain 24hr
in
rain mn
in
humidity
%
barometer
mb
20260905203507 62 298 17.0 20.0 0.00 0.00 0.00 52 1024.7
20260905203008 62 298 17.0 20.0 0.00 0.00 0.00 52 1024.4
20260905202507 62 294 19.0 21.0 0.00 0.00 0.00 52 1024.5
20260905202007 30 0 0.0 0.0 0.00 0.00 0.00 100 1024.6
20260905201508 63 297 18.0 23.0 0.00 0.00 0.00 51 1024.4
20260905201007 63 297 18.0 23.0 0.00 0.00 0.00 51 1024.4
20260905200507 63 293 18.0 20.0 0.00 0.00 0.00 51 1024.3
20260905200007 63 295 16.0 23.0 0.00 0.00 0.00 51 1024.4
20260905195508 30 0 0.0 0.0 0.00 0.00 0.00 100 1024.3
20260905195008 63 281 22.0 24.0 0.00 0.00 0.00 50 1024.2
20260905194508 63 281 22.0 24.0 0.00 0.00 0.00 50 1024.0
20260905194007 63 285 18.0 23.0 0.00 0.00 0.00 50 1024.1
20260905193508 63 289 22.0 23.0 0.00 0.00 0.00 50 1023.9
20260905193007 30 0 0.0 0.0 0.00 0.00 0.00 100 1024.1
20260905192507 64 286 17.0 20.0 0.00 0.00 0.00 49 1024.0
20260905192007 64 286 17.0 20.0 0.00 0.00 0.00 49 1023.9
20260905191507 64 285 18.0 19.0 0.00 0.00 0.00 49 1024.1
20260905191007 30 0 0.0 0.0 0.00 0.00 0.00 100 1024.0
20260905190507 30 0 0.0 0.0 0.00 0.00 0.00 100 1024.1
20260905190008 30 0 0.0 0.0 0.00 0.00 0.00 100 1023.9
20260905185508 30 0 0.0 0.0 0.00 0.00 0.00 100 1023.8
20260905185007 65 289 11.0 13.0 0.00 0.00 0.00 49 1023.7
20260905184506 65 289 11.0 13.0 0.00 0.00 0.00 49 1023.6
20260905184007 65 281 18.0 20.0 0.00 0.00 0.00 48 1023.7
20260905183507 65 283 14.0 19.0 0.00 0.00 0.00 49 1023.6
20260905183008 65 297 12.0 14.0 0.00 0.00 0.00 51 1023.7
20260905182508 65 297 12.0 14.0 0.00 0.00 0.00 51 1023.4
20260905182007 65 305 15.0 16.0 0.00 0.00 0.00 50 1023.4
20260905181507 65 296 14.0 17.0 0.00 0.00 0.00 50 1023.5
20260905181007 65 302 14.0 16.0 0.00 0.00 0.00 50 1023.2
20260905180507 65 304 12.0 15.0 0.00 0.00 0.00 51 1023.2
20260905180007 65 303 15.0 19.0 0.00 0.00 0.00 50 1023.1
20260905175507 65 302 17.0 21.0 0.00 0.00 0.00 50 1022.9
20260905175008 65 302 9.0 12.0 0.00 0.00 0.00 50 1022.8
20260905174508 65 306 14.0 16.0 0.00 0.00 0.00 50 1023.0
20260905174009 66 302 12.0 13.0 0.00 0.00 0.00 49 1022.8
20260905173507 66 319 7.0 12.0 0.00 0.00 0.00 49 1022.8
20260905173008 66 315 8.0 12.0 0.00 0.00 0.00 49 1022.6
20260905172508 66 329 12.0 14.0 0.00 0.00 0.00 48 1022.7
20260905172008 66 305 12.0 19.0 0.00 0.00 0.00 48 1022.5
20260905171508 67 307 11.0 15.0 0.00 0.00 0.00 48 1022.4
20260905171007 67 305 8.0 9.0 0.00 0.00 0.00 48 1022.5
20260905170507 68 307 13.0 14.0 0.00 0.00 0.00 48 1022.4
20260905170007 68 310 9.0 14.0 0.00 0.00 0.00 47 1022.3
20260905165507 68 310 8.0 15.0 0.00 0.00 0.00 47 1022.1
20260905165008 68 293 21.0 22.0 0.00 0.00 0.00 46 1022.3
20260905164508 68 308 8.0 11.0 0.00 0.00 0.00 46 1022.2
20260905164007 68 323 7.0 11.0 0.00 0.00 0.00 46 1022.0
20260905163507 69 298 11.0 17.0 0.00 0.00 0.00 43 1021.8
20260905163008 69 289 13.0 19.0 0.00 0.00 0.00 44 1021.9
20260905162507 69 294 17.0 17.0 0.00 0.00 0.00 43 1021.8
20260905162007 69 311 6.0 11.0 0.00 0.00 0.00 44 1021.7
20260905161507 69 318 13.0 17.0 0.00 0.00 0.00 43 1021.8
20260905161006 70 308 22.0 22.0 0.00 0.00 0.00 43 1021.8
20260905160507 70 312 9.0 20.0 0.00 0.00 0.00 43 1021.5
20260905160009 70 329 12.0 18.0 0.00 0.00 0.00 43 1021.6
20260905155507 70 300 22.0 25.0 0.00 0.00 0.00 43 1021.5
20260905155007 70 295 15.0 19.0 0.00 0.00 0.00 42 1021.5
20260905154506 70 287 18.0 19.0 0.00 0.00 0.00 42 1021.6
20260905154007 70 290 18.0 21.0 0.00 0.00 0.00 43 1021.3
20260905153507 70 265 12.0 14.0 0.00 0.00 0.00 43 1021.3
20260905153008 70 287 25.0 33.0 0.00 0.00 0.00 42 1021.3
20260905152508 69 290 19.0 22.0 0.00 0.00 0.00 44 1021.3
20260905152007 69 282 19.0 28.0 0.00 0.00 0.00 44 1021.3
20260905151507 69 289 19.0 23.0 0.00 0.00 0.00 45 1021.3
20260905151007 69 294 21.0 23.0 0.00 0.00 0.00 44 1021.4
20260905150507 69 308 14.0 23.0 0.00 0.00 0.00 46 1021.4
20260905150007 69 299 17.0 29.0 0.00 0.00 0.00 45 1021.4
20260905145507 69 306 16.0 28.0 0.00 0.00 0.00 45 1021.6
20260905145007 70 279 17.0 19.0 0.00 0.00 0.00 45 1021.4
20260905144507 69 289 17.0 20.0 0.00 0.00 0.00 45 1021.4
20260905144008 69 282 14.0 17.0 0.00 0.00 0.00 45 1021.3
20260905143507 68 289 11.0 14.0 0.00 0.00 0.00 46 1021.4
20260905143007 68 290 15.0 16.0 0.00 0.00 0.00 46 1021.2
20260905142507 69 290 13.0 17.0 0.00 0.00 0.00 46 1021.6
20260905142008 68 295 14.0 15.0 0.00 0.00 0.00 47 1021.4
20260905141508 68 298 22.0 25.0 0.00 0.00 0.00 46 1021.6
20260905141006 68 289 20.0 21.0 0.00 0.00 0.00 46 1021.4
20260905140508 68 300 18.0 21.0 0.00 0.00 0.00 45 1021.6
20260905140008 69 289 16.0 19.0 0.00 0.00 0.00 44 1021.1
20260905135508 69 287 14.0 16.0 0.00 0.00 0.00 45 1021.3
20260905135008 69 274 11.0 19.0 0.00 0.00 0.00 45 1021.2
20260905134508 68 274 18.0 22.0 0.00 0.00 0.00 46 1021.3
20260905134008 68 285 16.0 23.0 0.00 0.00 0.00 47 1021.2
20260905133507 68 289 14.0 17.0 0.00 0.00 0.00 49 1021.4
20260905133008 68 289 14.0 17.0 0.00 0.00 0.00 49 1021.6
20260905132507 68 277 20.0 21.0 0.00 0.00 0.00 50 1021.5
20260905132007 67 290 20.0 21.0 0.00 0.00 0.00 51 1021.5
20260905131508 67 290 20.0 21.0 0.00 0.00 0.00 51 1021.4
20260905131007 66 276 13.0 16.0 0.00 0.00 0.00 52 1021.5
20260905130506 67 285 13.0 17.0 0.00 0.00 0.00 51 1021.5
20260905130007 67 294 14.0 18.0 0.00 0.00 0.00 50 1021.4
20260905125507 67 299 20.0 21.0 0.00 0.00 0.00 50 1021.5
20260905125008 67 288 17.0 20.0 0.00 0.00 0.00 50 1021.7
20260905124507 67 301 15.0 18.0 0.00 0.00 0.00 51 1021.6
20260905124007 67 282 17.0 24.0 0.00 0.00 0.00 50 1021.5
20260905123508 67 295 12.0 18.0 0.00 0.00 0.00 50 1021.8
20260905123007 66 286 17.0 19.0 0.00 0.00 0.00 52 1021.5
20260905122508 66 283 20.0 21.0 0.00 0.00 0.00 51 1021.8
20260905122008 66 297 19.0 21.0 0.00 0.00 0.00 51 1021.8
20260905121508 67 295 17.0 22.0 0.00 0.00 0.00 50 1021.7
20260905121008 67 295 17.0 22.0 0.00 0.00 0.00 50 1021.9
20260905120508 67 281 14.0 27.0 0.00 0.00 0.00 51 1021.8
20260905120008 67 289 18.0 22.0 0.00 0.00 0.00 50 1022.0
20260905115508 66 285 25.0 26.0 0.00 0.00 0.00 51 1021.7
20260905115008 66 268 15.0 16.0 0.00 0.00 0.00 53 1021.8
20260905114507 67 278 19.0 25.0 0.00 0.00 0.00 52 1021.8
20260905114008 67 261 14.0 17.0 0.00 0.00 0.00 51 1021.8
20260905113508 66 289 23.0 26.0 0.00 0.00 0.00 54 1021.6
20260905113008 66 288 16.0 17.0 0.00 0.00 0.00 56 1022.2
20260905112507 66 294 20.0 21.0 0.00 0.00 0.00 55 1021.6
20260905112008 65 297 18.0 23.0 0.00 0.00 0.00 56 1021.8
20260905111508 65 296 16.0 23.0 0.00 0.00 0.00 57 1021.9
20260905111007 65 292 22.0 23.0 0.00 0.00 0.00 57 1021.9
20260905110509 64 275 16.0 22.0 0.00 0.00 0.00 60 1022.0
20260905110008 64 275 16.0 22.0 0.00 0.00 0.00 60 1022.0
20260905105508 65 276 24.0 25.0 0.00 0.00 0.00 58 1022.0
20260905105007 65 261 11.0 19.0 0.00 0.00 0.00 60 1022.0
20260905104508 65 261 11.0 19.0 0.00 0.00 0.00 60 1021.7
20260905104008 65 278 25.0 29.0 0.00 0.00 0.00 59 1022.0
20260905103508 64 250 19.0 33.0 0.00 0.00 0.00 61 1021.7
20260905103008 65 278 15.0 17.0 0.00 0.00 0.00 62 1021.8
20260905102506 64 287 14.0 22.0 0.00 0.00 0.00 63 1022.0
20260905102008 64 271 9.0 16.0 0.00 0.00 0.00 63 1021.9
20260905101508 64 275 6.0 11.0 0.00 0.00 0.00 66 1022.0
20260905101008 64 275 6.0 11.0 0.00 0.00 0.00 66 1021.8
20260905100508 63 278 14.0 16.0 0.00 0.00 0.00 67 1022.0
20260905100008 63 283 11.0 14.0 0.00 0.00 0.00 66 1021.8
20260905095508 62 259 10.0 19.0 0.00 0.00 0.00 66 1021.9
20260905095008 63 290 18.0 23.0 0.00 0.00 0.00 67 1021.7
20260905094508 63 291 14.0 19.0 0.00 0.00 0.00 67 1021.9
20260905094008 63 282 20.0 20.0 0.00 0.00 0.00 66 1021.9
20260905093508 62 254 9.0 11.0 0.00 0.00 0.00 70 1022.1
20260905093007 62 286 14.0 16.0 0.00 0.00 0.00 69 1021.9
20260905092508 62 266 12.0 16.0 0.00 0.00 0.00 69 1021.9
20260905092008 61 236 14.0 16.0 0.00 0.00 0.00 70 1021.9
20260905091508 62 264 17.0 17.0 0.00 0.00 0.00 70 1021.9
20260905091008 61 284 22.0 23.0 0.00 0.00 0.00 71 1022.0
20260905090508 61 276 16.0 18.0 0.00 0.00 0.00 73 1021.8
20260905090008 62 264 12.0 14.0 0.00 0.00 0.00 72 1021.9
20260905085508 62 280 9.0 10.0 0.00 0.00 0.00 74 1021.6
20260905085008 61 232 16.0 16.0 0.00 0.00 0.00 73 1021.6
20260905084508 62 265 12.0 13.0 0.00 0.00 0.00 73 1021.5
20260905084008 61 295 9.0 14.0 0.00 0.00 0.00 74 1021.8
20260905083508 60 280 5.0 12.0 0.00 0.00 0.00 76 1021.5
20260905083008 60 238 14.0 15.0 0.00 0.00 0.00 75 1021.6
20260905082508 60 271 17.0 17.0 0.00 0.00 0.00 76 1021.5
20260905082008 60 250 23.0 24.0 0.00 0.00 0.00 76 1021.5
20260905081509 59 262 12.0 17.0 0.00 0.00 0.00 77 1021.6
20260905081007 59 269 11.0 17.0 0.00 0.00 0.00 78 1021.6
20260905080507 59 259 4.0 8.0 0.00 0.00 0.00 78 1021.4
20260905080008 59 288 10.0 14.0 0.00 0.00 0.00 79 1021.5
20260905075508 59 279 5.0 6.0 0.00 0.00 0.00 80 1021.2
20260905075008 58 271 13.0 14.0 0.00 0.00 0.00 79 1021.2
20260905074507 58 252 10.0 15.0 0.00 0.00 0.00 81 1021.0
20260905074008 58 255 15.0 17.0 0.00 0.00 0.00 80 1021.0
20260905073508 57 252 12.0 13.0 0.00 0.00 0.00 81 1021.0
20260905073008 57 263 15.0 17.0 0.00 0.00 0.00 82 1020.8
20260905072508 57 259 9.0 17.0 0.00 0.00 0.00 83 1020.8
20260905072007 57 251 19.0 21.0 0.00 0.00 0.00 83 1020.8
20260905071508 57 287 11.0 15.0 0.00 0.00 0.00 85 1021.0
20260905071008 57 271 8.0 11.0 0.00 0.00 0.00 86 1021.0
20260905070509 57 248 15.0 21.0 0.00 0.00 0.00 85 1021.2
20260905070008 57 262 10.0 15.0 0.00 0.00 0.00 86 1021.2
20260905065508 56 258 14.0 17.0 0.00 0.00 0.00 87 1021.0
20260905065008 56 260 7.0 11.0 0.00 0.00 0.00 87 1020.9
20260905064507 56 242 9.0 12.0 0.00 0.00 0.00 90 1021.2
20260905064007 56 249 9.0 12.0 0.00 0.00 0.00 91 1020.9
20260905063507 56 246 8.0 10.0 0.00 0.00 0.00 91 1020.9
20260905063008 56 235 10.0 16.0 0.00 0.00 0.00 91 1020.9
20260905062508 56 234 20.0 22.0 0.00 0.00 0.00 91 1020.8
20260905062007 56 230 9.0 12.0 0.00 0.00 0.00 92 1020.8
20260905061508 56 244 15.0 15.0 0.00 0.00 0.00 92 1020.8
20260905061007 56 239 10.0 11.0 0.00 0.00 0.00 91 1020.4
20260905060508 56 269 8.0 14.0 0.00 0.00 0.00 91 1020.3
20260905060008 56 240 9.0 11.0 0.00 0.00 0.00 91 1020.4
20260905055508 56 239 8.0 9.0 0.00 0.00 0.00 91 1020.5
20260905055008 56 210 7.0 9.0 0.00 0.00 0.00 90 1020.3
20260905054509 56 229 5.0 10.0 0.00 0.00 0.00 91 1020.3
20260905054007 55 238 8.0 10.0 0.00 0.00 0.00 91 1020.4
20260905053508 55 221 11.0 11.0 0.00 0.00 0.00 91 1020.1
20260905053008 56 248 10.0 13.0 0.00 0.00 0.00 89 1020.1
20260905052508 55 233 7.0 7.0 0.00 0.00 0.00 89 1020.1
20260905052007 55 249 6.0 7.0 0.00 0.00 0.00 90 1020.0
20260905051508 55 259 8.0 8.0 0.00 0.00 0.00 89 1019.9
20260905051007 55 267 6.0 6.0 0.00 0.00 0.00 89 1020.0
20260905050508 55 268 4.0 4.0 0.00 0.00 0.00 89 1019.8
20260905050007 55 313 1.0 2.0 0.00 0.00 0.00 90 1019.7
20260905045508 55 351 2.0 4.0 0.00 0.00 0.00 91 1019.7
20260905045008 55 290 5.0 7.0 0.00 0.00 0.00 87 1019.4
20260905044507 55 228 3.0 5.0 0.00 0.00 0.00 89 1019.3
20260905044007 55 229 9.0 10.0 0.00 0.00 0.00 87 1018.7
20260905043507 56 204 12.0 13.0 0.00 0.00 0.00 86 1018.9
20260905043008 55 224 10.0 13.0 0.00 0.00 0.00 86 1018.9
20260905042507 55 220 15.0 16.0 0.00 0.00 0.00 88 1018.8
20260905042008 55 209 9.0 15.0 0.00 0.00 0.00 87 1018.4
20260905041508 55 232 6.0 11.0 0.00 0.00 0.00 89 1018.6
20260905041006 55 196 15.0 19.0 0.00 0.00 0.00 90 1017.9
20260905040507 56 219 11.0 14.0 0.00 0.00 0.00 87 1018.6
20260905040007 56 227 11.0 12.0 0.00 0.00 0.00 88 1018.8
20260905035507 56 205 8.0 19.0 0.00 0.00 0.00 86 1018.9
20260905035009 57 233 13.0 16.0 0.00 0.00 0.00 87 1019.0
20260905034508 30 0 0.0 0.0 0.00 0.00 0.00 100 1019.3
20260905034008 57 271 16.0 18.0 0.00 0.00 0.00 84 1019.4
20260905033507 57 271 16.0 18.0 0.00 0.00 0.00 84 1019.2
20260905033007 30 0 0.0 0.0 0.00 0.00 0.00 100 1019.4
20260905032507 30 0 0.0 0.0 0.00 0.00 0.00 100 1019.4
20260905032007 30 0 0.0 0.0 0.00 0.00 0.00 100 1019.3
20260905031508 59 289 23.0 25.0 0.00 0.00 0.00 74 1019.1
20260905031007 59 289 23.0 25.0 0.00 0.00 0.00 74 1018.8
20260905030508 30 0 0.0 0.0 0.00 0.00 0.00 100 1018.9
20260905030008 30 0 0.0 0.0 0.00 0.00 0.00 100 1019.2
20260905025508 59 285 20.0 22.0 0.00 0.00 0.00 76 1019.4
20260905025007 59 285 20.0 22.0 0.00 0.00 0.00 76 1019.6
20260905024508 30 0 0.0 0.0 0.00 0.00 0.00 100 1019.2
20260905024008 30 0 0.0 0.0 0.00 0.00 0.00 100 1018.9
20260905023507 30 0 0.0 0.0 0.00 0.00 0.00 100 1018.5
20260905023008 30 0 0.0 0.0 0.00 0.00 0.00 100 1018.3
20260905022508 30 0 0.0 0.0 0.00 0.00 0.00 100 1018.4
20260905022007 30 0 0.0 0.0 0.00 0.00 0.00 100 1018.2
20260905021507 30 0 0.0 0.0 0.00 0.00 0.00 100 1018.3
20260905021008 30 0 0.0 0.0 0.00 0.00 0.00 100 1018.4
20260905020508 59 314 9.0 11.0 0.00 0.00 0.00 71 1018.4
20260905020007 59 314 9.0 11.0 0.00 0.00 0.00 71 1018.3
20260905015508 59 298 10.0 17.0 0.00 0.00 0.00 70 1018.3
20260905015007 59 289 18.0 20.0 0.00 0.00 0.00 70 1018.7
20260905014508 60 289 15.0 17.0 0.00 0.00 0.00 70 1018.5
20260905014008 62 301 21.0 25.0 0.00 0.00 0.00 63 1018.1
20260905013507 62 299 14.0 23.0 0.00 0.00 0.00 61 1018.3
20260905013007 62 291 17.0 22.0 0.00 0.00 0.00 61 1017.7
20260905012508 62 301 14.0 24.0 0.00 0.00 0.00 61 1017.8
20260905012007 62 307 14.0 20.0 0.00 0.00 0.00 61 1017.7
20260905011507 63 316 11.0 15.0 0.00 0.00 0.00 63 1017.7
20260905011008 63 296 19.0 22.0 0.00 0.00 0.00 64 1017.8
20260905010507 63 298 26.0 28.0 0.00 0.00 0.00 64 1017.7
20260905010008 63 308 14.0 23.0 0.00 0.00 0.00 66 1018.0
20260905005508 63 298 17.0 22.0 0.00 0.00 0.00 66 1017.7
20260905005007 62 305 14.0 16.0 0.00 0.00 0.00 67 1017.6
20260905004508 62 305 14.0 16.0 0.00 0.00 0.00 67 1017.7
20260905004007 62 318 5.0 8.0 0.00 0.00 0.00 67 1017.8
20260905003508 62 305 12.0 15.0 0.00 0.00 0.00 67 1017.8
20260905003007 62 308 8.0 14.0 0.00 0.00 0.00 67 1017.9
20260905002507 63 313 8.0 12.0 0.00 0.00 0.00 65 1017.4
20260905002007 62 301 8.0 10.0 0.00 0.00 0.00 67 1017.6
20260905001508 62 299 11.0 14.0 0.00 0.00 0.00 67 1017.5
20260905001006 63 298 12.0 16.0 0.00 0.00 0.00 66 1017.8
20260905000507 63 317 11.0 14.0 0.00 0.00 0.00 64 1017.8
20260905000009 63 327 12.0 16.0 0.00 0.00 0.00 64 1017.6
20260904235507 63 304 24.0 33.0 0.00 0.00 0.00 67 1017.5
20260904235008 63 325 10.0 15.0 0.00 0.00 0.00 69 1017.5
20260904234507 63 315 14.0 31.0 0.00 0.00 0.00 69 1017.5
20260904234008 63 298 20.0 24.0 0.00 0.00 0.00 71 1017.6
20260904233508 63 327 9.0 12.0 0.00 0.00 0.00 74 1017.4
20260904233007 30 0 0.0 0.0 0.00 0.00 0.00 100 1017.5
20260904232506 30 0 0.0 0.0 0.00 0.00 0.00 100 1017.6
20260904232007 30 0 0.0 0.0 0.00 0.00 0.00 100 1017.6
20260904231508 30 0 0.0 0.0 0.00 0.00 0.00 100 1017.5
20260904231008 62 357 15.0 16.0 0.00 0.00 0.00 75 1017.2
20260904230507 62 357 15.0 16.0 0.00 0.00 0.00 75 1017.2
20260904230007 62 11 12.0 18.0 0.00 0.00 0.00 74 1016.5
20260904225507 63 23 17.0 22.0 0.00 0.00 0.00 74 1016.7
20260904225008 63 2 19.0 21.0 0.00 0.00 0.00 74 1016.9
20260904224507 63 12 16.0 18.0 0.00 0.00 0.00 74 1016.5
20260904224008 63 19 21.0 25.0 0.00 0.00 0.00 73 1016.5
20260904223507 63 19 21.0 25.0 0.00 0.00 0.00 73 1015.7
20260904223007 64 16 15.0 19.0 0.00 0.00 0.00 73 1015.8
20260904222507 65 11 17.0 17.0 0.00 0.00 0.00 70 1015.5
20260904222007 66 10 10.0 14.0 0.00 0.00 0.00 70 1015.6
20260904221508 70 54 8.0 10.0 0.00 0.00 0.00 66 1015.2
20260904221008 71 3 6.0 6.0 0.00 0.00 0.00 65 1015.0
20260904220508 74 277 9.0 12.0 0.00 0.00 0.00 58 1014.8
20260904220008 74 277 9.0 12.0 0.00 0.00 0.00 58 1014.9
20260904215507 74 278 9.0 14.0 0.00 0.00 0.00 58 1014.6
20260904215008 74 248 10.0 16.0 0.00 0.00 0.00 58 1014.4
20260904214508 74 255 14.0 18.0 0.00 0.00 0.00 57 1014.6
20260904214008 74 265 15.0 16.0 0.00 0.00 0.00 57 1014.4
20260904213507 74 260 17.0 20.0 0.00 0.00 0.00 57 1014.3
20260904213008 75 259 15.0 18.0 0.00 0.00 0.00 57 1014.1
20260904212508 74 253 15.0 18.0 0.00 0.00 0.00 57 1014.2
20260904212008 75 257 13.0 18.0 0.00 0.00 0.00 56 1014.2
20260904211508 75 254 16.0 17.0 0.00 0.00 0.00 56 1013.9
20260904211007 75 244 16.0 20.0 0.00 0.00 0.00 55 1014.1
20260904210508 75 254 14.0 19.0 0.00 0.00 0.00 55 1014.2
20260904210008 75 259 9.0 12.0 0.00 0.00 0.00 55 1013.9
20260904205507 75 253 17.0 20.0 0.00 0.00 0.00 55 1014.0
20260904205008 76 271 7.0 12.0 0.00 0.00 0.00 55 1014.2
20260904204508 76 258 17.0 19.0 0.00 0.00 0.00 55 1014.1
20260904204008 76 239 10.0 15.0 0.00 0.00 0.00 54 1014.0